• In Netherlands
  • List of Countries
  • For 7 days
  • Water Temperature
  • Satellite Maps
  • Weather Map
  • Weather Widgets
  • user-avatar
    Login

    Hourly Weather Djelfa

    Today, 27 May, Saturday

    Time Temperature Precipitation Wind Pressure Humidity
    00:00 +26°C° 0.1 mm 4 mps 664 mmHg 28%
    01:00 +26°C° 0 mm 4 mps 664 mmHg 30%
    02:00 +25°C° 0 mm 4 mps 664 mmHg 31%
    03:00 +23°C° 0 mm 4 mps 664 mmHg 32%
    04:00 +23°C° 0 mm 4 mps 664 mmHg 33%
    05:00 +23°C° 0 mm 4 mps 664 mmHg 35%
    06:00 +23°C° 0 mm 4 mps 664 mmHg 36%
    07:00 +25°C° 0 mm 5 mps 665 mmHg 33%
    08:00 +27°C° 0 mm 6 mps 665 mmHg 30%
    09:00 +28°C° 0 mm 6 mps 666 mmHg 27%
    10:00 +30°C° 0 mm 7 mps 666 mmHg 24%
    11:00 +32°C° 0 mm 7 mps 666 mmHg 22%
    12:00 +33°C° 0 mm 7 mps 666 mmHg 19%
    13:00 +34°C° 0 mm 6 mps 666 mmHg 18%
    14:00 +34°C° 0 mm 6 mps 665 mmHg 17%
    15:00 +34°C° 0 mm 5 mps 665 mmHg 15%
    16:00 +34°C° 0 mm 6 mps 665 mmHg 16%
    17:00 +33°C° 0 mm 6 mps 665 mmHg 17%
    18:00 +33°C° 0 mm 6 mps 665 mmHg 18%
    19:00 +30°C° 0 mm 7 mps 665 mmHg 21%
    20:00 +29°C° 0 mm 7 mps 665 mmHg 25%
    21:00 +27°C° 0 mm 8 mps 665 mmHg 28%
    22:00 +26°C° 0 mm 7 mps 665 mmHg 31%
    23:00 +24°C° 0 mm 7 mps 665 mmHg 35%

    Tomorrow, 28 May, Sunday

    Time Temperature Precipitation Wind Pressure Humidity
    00:00 +23°C° 0 mm 6 mps 665 mmHg 38%
    01:00 +23°C° 0 mm 5 mps 665 mmHg 40%
    02:00 +22°C° 0 mm 5 mps 665 mmHg 42%
    03:00 +21°C° 0 mm 4 mps 665 mmHg 44%
    04:00 +21°C° 0 mm 4 mps 665 mmHg 44%
    05:00 +21°C° 0 mm 4 mps 665 mmHg 45%
    06:00 +21°C° 0 mm 4 mps 665 mmHg 45%
    07:00 +23°C° 0 mm 5 mps 666 mmHg 41%
    08:00 +25°C° 0 mm 5 mps 666 mmHg 36%
    09:00 +27°C° 0 mm 6 mps 667 mmHg 32%
    10:00 +28°C° 0 mm 6 mps 667 mmHg 29%
    11:00 +29°C° 0 mm 6 mps 667 mmHg 27%
    12:00 +32°C° 0 mm 6 mps 667 mmHg 24%
    13:00 +32°C° 0 mm 6 mps 667 mmHg 24%
    14:00 +32°C° 0 mm 5 mps 666 mmHg 23%
    15:00 +33°C° 0 mm 5 mps 666 mmHg 22%
    16:00 +32°C° 0 mm 5 mps 666 mmHg 23%
    17:00 +30°C° 0 mm 5 mps 666 mmHg 25%
    18:00 +30°C° 0 mm 5 mps 665 mmHg 26%
    19:00 +28°C° 0 mm 5 mps 665 mmHg 28%
    20:00 +27°C° 0 mm 5 mps 666 mmHg 30%
    21:00 +26°C° 0 mm 5 mps 666 mmHg 33%
    22:00 +26°C° 0 mm 4 mps 666 mmHg 35%
    23:00 +25°C° 0 mm 4 mps 665 mmHg 38%

    Day after tomorrow, 29 May, Monday

    Time Temperature Precipitation Wind Pressure Humidity
    00:00 +23°C° 0 mm 4 mps 665 mmHg 41%
    01:00 +22°C° 0 mm 4 mps 665 mmHg 44%
    02:00 +22°C° 0 mm 4 mps 665 mmHg 47%
    03:00 +21°C° 0 mm 4 mps 664 mmHg 50%
    04:00 +21°C° 0 mm 4 mps 665 mmHg 50%
    05:00 +20°C° 0 mm 4 mps 665 mmHg 50%
    06:00 +20°C° 0 mm 4 mps 665 mmHg 50%
    07:00 +22°C° 0 mm 4 mps 665 mmHg 44%
    08:00 +23°C° 0 mm 4 mps 666 mmHg 39%
    09:00 +26°C° 0 mm 5 mps 666 mmHg 33%
    10:00 +27°C° 0 mm 5 mps 666 mmHg 30%
    11:00 +28°C° 0 mm 5 mps 666 mmHg 28%
    12:00 +29°C° 0 mm 4 mps 666 mmHg 25%
    13:00 +30°C° 0 mm 4 mps 666 mmHg 24%
    14:00 +30°C° 0 mm 4 mps 665 mmHg 23%
    15:00 +32°C° 0 mm 4 mps 665 mmHg 22%
    16:00 +30°C° 0 mm 5 mps 665 mmHg 23%
    17:00 +29°C° 0 mm 5 mps 665 mmHg 25%
    18:00 +29°C° 0 mm 6 mps 665 mmHg 26%
    19:00 +27°C° 0 mm 5 mps 665 mmHg 31%
    20:00 +26°C° 0 mm 5 mps 665 mmHg 35%
    21:00 +25°C° 0 mm 4 mps 665 mmHg 40%
    22:00 +23°C° 0 mm 4 mps 665 mmHg 41%
    23:00 +23°C° 0 mm 4 mps 665 mmHg 42%

    30 May, Tuesday

    Time Temperature Precipitation Wind Pressure Humidity
    00:00 +22°C° 0 mm 3 mps 665 mmHg 44%
    01:00 +21°C° 0 mm 3 mps 665 mmHg 45%
    02:00 +21°C° 0 mm 3 mps 665 mmHg 46%
    03:00 +20°C° 0 mm 3 mps 665 mmHg 48%
    04:00 +20°C° 0 mm 3 mps 665 mmHg 49%
    05:00 +19°C° 0 mm 3 mps 665 mmHg 50%
    06:00 +19°C° 0 mm 2 mps 665 mmHg 51%
    07:00 +20°C° 0 mm 3 mps 666 mmHg 49%
    08:00 +20°C° 0 mm 3 mps 666 mmHg 47%
    09:00 +20°C° 0 mm 3 mps 666 mmHg 45%
    10:00 +21°C° 0 mm 3 mps 666 mmHg 42%
    11:00 +22°C° 0 mm 4 mps 666 mmHg 39%
    12:00 +23°C° 0 mm 4 mps 666 mmHg 37%
    13:00 +23°C° 0 mm 4 mps 666 mmHg 36%
    14:00 +25°C° 0 mm 5 mps 666 mmHg 36%
    15:00 +25°C° 0 mm 5 mps 666 mmHg 35%
    16:00 +23°C° 0 mm 5 mps 666 mmHg 35%
    17:00 +23°C° 0 mm 6 mps 666 mmHg 36%
    18:00 +23°C° 0 mm 6 mps 666 mmHg 36%
    19:00 +22°C° 0 mm 6 mps 666 mmHg 36%
    20:00 +22°C° 0 mm 6 mps 666 mmHg 35%
    21:00 +21°C° 0 mm 6 mps 666 mmHg 35%
    22:00 +21°C° 0.1 mm 6 mps 666 mmHg 35%
    23:00 +21°C° 0.1 mm 5 mps 666 mmHg 36%

    31 May, Wednesday

    Time Temperature Precipitation Wind Pressure Humidity
    00:00 +20°C° 0.1 mm 4 mps 666 mmHg 36%
    01:00 +20°C° 0 mm 4 mps 666 mmHg 38%
    02:00 +20°C° 0 mm 3 mps 666 mmHg 40%
    03:00 +19°C° 0 mm 3 mps 666 mmHg 42%
    04:00 +19°C° 0 mm 3 mps 666 mmHg 43%
    05:00 +19°C° 0 mm 4 mps 666 mmHg 44%
    06:00 +19°C° 0 mm 4 mps 666 mmHg 44%
    07:00 +20°C° 0 mm 5 mps 667 mmHg 39%
    08:00 +21°C° 0 mm 6 mps 667 mmHg 33%
    09:00 +23°C° 0 mm 6 mps 668 mmHg 28%
    10:00 +24°C° 0 mm 6 mps 668 mmHg 25%
    11:00 +26°C° 0 mm 6 mps 668 mmHg 23%
    12:00 +28°C° 0 mm 6 mps 668 mmHg 21%
    13:00 +28°C° 0 mm 6 mps 668 mmHg 20%
    14:00 +28°C° 0 mm 6 mps 668 mmHg 19%
    15:00 +28°C° 0 mm 6 mps 667 mmHg 18%
    16:00 +27°C° 0 mm 6 mps 667 mmHg 19%
    17:00 +27°C° 0 mm 6 mps 667 mmHg 20%
    18:00 +26°C° 0 mm 5 mps 667 mmHg 20%
    19:00 +25°C° 0 mm 5 mps 667 mmHg 21%
    20:00 +25°C° 0 mm 5 mps 668 mmHg 22%
    21:00 +23°C° 0 mm 5 mps 668 mmHg 23%
    22:00 +22°C° 0 mm 4 mps 668 mmHg 25%
    23:00 +22°C° 0 mm 4 mps 667 mmHg 26%

    1 June, Thursday

    Time Temperature Precipitation Wind Pressure Humidity
    00:00 +21°C° 0 mm 3 mps 667 mmHg 28%
    01:00 +20°C° 0.1 mm 3 mps 667 mmHg 32%
    02:00 +20°C° 0.1 mm 3 mps 666 mmHg 35%
    03:00 +19°C° 0.1 mm 3 mps 666 mmHg 39%
    04:00 +19°C° 0.1 mm 3 mps 667 mmHg 39%
    05:00 +19°C° 0.1 mm 3 mps 667 mmHg 40%
    06:00 +19°C° 0.1 mm 3 mps 667 mmHg 40%
    07:00 +21°C° 0.1 mm 4 mps 668 mmHg 34%
    08:00 +23°C° 0.1 mm 5 mps 668 mmHg 29%
    09:00 +26°C° 0.1 mm 6 mps 669 mmHg 23%
    10:00 +27°C° 0.1 mm 6 mps 669 mmHg 21%
    11:00 +28°C° 0.1 mm 6 mps 669 mmHg 20%
    12:00 +30°C° 0.1 mm 6 mps 668 mmHg 18%
    13:00 +30°C° 0 mm 6 mps 668 mmHg 17%
    14:00 +32°C° 0 mm 6 mps 668 mmHg 17%
    15:00 +32°C° 0 mm 5 mps 668 mmHg 16%
    16:00 +32°C° 0 mm 5 mps 667 mmHg 17%
    17:00 +30°C° 0 mm 6 mps 667 mmHg 17%
    18:00 +29°C° 0 mm 6 mps 667 mmHg 18%
    19:00 +28°C° 0 mm 5 mps 667 mmHg 19%
    20:00 +27°C° 0 mm 5 mps 667 mmHg 19%
    21:00 +26°C° 0 mm 5 mps 667 mmHg 20%
    22:00 +25°C° 0 mm 4 mps 667 mmHg 22%
    23:00 +23°C° 0 mm 4 mps 667 mmHg 24%
    Show more